Selawik, AK

12:02 PM AKDT on April 19, 2018 (GMT -0800)
Selawik

Weather History for PASK - November, 2012

Change the Weather History Date:

Wednesday, November 21, 2012

  Actual Average Record
Temperature  
Mean Temperature -14 °F -  
Max Temperature -13 °F 10 °F 37 °F (2003)
Min Temperature -16 °F 1 °F -32 °F (2008)
Degree Days  
Heating Degree Days 80    
Moisture  
Dew Point -25 °F    
Average Humidity 63    
Maximum Humidity 92    
Minimum Humidity 48    
Precipitation  
Precipitation 0.00 in - - ()
Sea Level Pressure  
Sea Level Pressure 30.32 in    
Wind  
Wind Speed 5 mph (ENE)    
Max Wind Speed 8 mph    
Max Gust Speed -    
Visibility 10 miles    
Events      
Averages and records for this station are not official NWS values.
T = Trace of Precipitation, MM = Missing Value Source: NWS Daily Summary

Daily Weather History Graph

Daily Weather History Graph

Search for Another Location

Airport or City:

Trip Planner

Search our weather history database for the weather conditions in past years. The results will help you decide how hot, cold, wet, or windy it might be!

Date:

Astronomy

Nov. 21, 2012 Rise Set
Actual Time 11:01 AM AKST 3:49 PM AKST
Civil Twilight 9:43 AM AKST 5:07 PM AKST
Nautical Twilight 8:33 AM AKST 6:18 PM AKST
Astronomical Twilight 7:29 AM AKST 7:21 PM AKST
Moon 2:46 PM AKST (11/21) 1:43 AM AKST (11/21)
Length of Visible Light 7h 23m
Length of Day
4h 48m
Waxing Gibbous, 63% of the Moon is Illuminated
Nov 21
Waxing Gibbous
Nov 28
Full
Dec 6
Last Quarter
Dec 12
New
Dec 19
First Quarter

Hourly Weather History & Observations

Time (AKST) Temp. Windchill Dew Point Humidity Pressure Visibility Wind Dir Wind Speed Gust Speed Precip Events Conditions
12:16 AM -14.8 °F -30.8 °F -25.6 °F 58% 30.27 in 10.0 mi East 6.9 mph - N/A   Clear
12:36 AM -14.8 °F -30.8 °F -25.6 °F 58% 30.27 in 10.0 mi East 6.9 mph - N/A   Clear
12:56 AM -14.8 °F -27.2 °F -23.8 °F 64% 30.27 in 10.0 mi ENE 4.6 mph - N/A   Clear
1:16 AM -14.8 °F -29.1 °F -25.6 °F 58% 30.27 in 10.0 mi ENE 5.8 mph - N/A   Clear
1:36 AM -14.8 °F -27.2 °F -25.6 °F 58% 30.26 in 10.0 mi ENE 4.6 mph - N/A   Clear
1:56 AM -14.8 °F -29.1 °F -23.8 °F 64% 30.27 in 10.0 mi ENE 5.8 mph - N/A   Clear
2:16 AM -14.8 °F -29.1 °F -23.8 °F 64% 30.27 in 10.0 mi ENE 5.8 mph - N/A   Clear
2:36 AM -16.6 °F -26.8 °F -27.4 °F 58% 30.27 in 10.0 mi NE 3.5 mph - N/A   Clear
2:56 AM -16.6 °F -29.3 °F -27.4 °F 58% 30.27 in 10.0 mi NE 4.6 mph - N/A   Clear
3:16 AM -14.8 °F -27.2 °F -18.4 °F 84% 30.28 in 10.0 mi ENE 4.6 mph - N/A   Clear
3:36 AM -16.6 °F -29.3 °F -27.4 °F 58% 30.27 in 10.0 mi NE 4.6 mph - N/A   Clear
3:56 AM -16.6 °F -31.3 °F -29.2 °F 53% 30.28 in 10.0 mi NE 5.8 mph - N/A   Clear
4:16 AM -16.6 °F -32.9 °F -18.4 °F 92% 30.27 in 10.0 mi ENE 6.9 mph - N/A   Scattered Clouds
4:36 AM -14.8 °F -32.2 °F -27.4 °F 53% 30.27 in 10.0 mi ENE 8.1 mph - N/A   Overcast
4:56 AM -14.8 °F -29.1 °F - N/A% 30.27 in 10.0 mi ENE 5.8 mph - N/A   Overcast
5:16 AM -14.8 °F -27.2 °F -16.6 °F 92% 30.27 in 10.0 mi ENE 4.6 mph - N/A   Overcast
5:36 AM -14.8 °F -29.1 °F - N/A% 30.28 in 10.0 mi ENE 5.8 mph - N/A   Overcast
5:56 AM -14.8 °F -27.2 °F - N/A% 30.28 in 4.0 mi ENE 4.6 mph - N/A   Overcast
6:16 AM -14.8 °F -30.8 °F - N/A% 30.28 in 4.0 mi ENE 6.9 mph - N/A   Overcast
6:36 AM -14.8 °F -27.2 °F - N/A% 30.27 in 10.0 mi ENE 4.6 mph - N/A   Overcast
6:56 AM -14.8 °F -29.1 °F - N/A% 30.28 in 10.0 mi NE 5.8 mph - N/A   Overcast
7:16 AM -14.8 °F -27.2 °F - N/A% 30.28 in 10.0 mi NE 4.6 mph - N/A   Overcast
7:36 AM -14.8 °F -29.1 °F - N/A% 30.28 in 10.0 mi ENE 5.8 mph - N/A   Overcast
7:56 AM -14.8 °F -29.1 °F -29.2 °F 48% 30.28 in 10.0 mi ENE 5.8 mph - N/A   Overcast
8:16 AM -14.8 °F -24.8 °F -27.4 °F 53% 30.28 in 10.0 mi NE 3.5 mph - N/A   Overcast
8:36 AM -14.8 °F -24.8 °F -29.2 °F 48% 30.27 in 10.0 mi ENE 3.5 mph - N/A   Overcast
8:56 AM -14.8 °F -24.8 °F -27.4 °F 53% 30.28 in 10.0 mi ENE 3.5 mph - N/A   Overcast
9:16 AM -14.8 °F -24.8 °F -25.6 °F 58% 30.28 in 10.0 mi ENE 3.5 mph - N/A   Overcast
9:36 AM -14.8 °F -24.8 °F -25.6 °F 58% 30.29 in 10.0 mi ENE 3.5 mph - N/A   Overcast
9:56 AM -14.8 °F -24.8 °F -25.6 °F 58% 30.29 in 10.0 mi ENE 3.5 mph - N/A   Overcast
10:16 AM -14.8 °F -24.8 °F -25.6 °F 58% 30.29 in 10.0 mi ENE 3.5 mph - N/A   Overcast
10:36 AM -14.8 °F -27.2 °F -23.8 °F 64% 30.29 in 10.0 mi NE 4.6 mph - N/A   Overcast
10:56 AM -14.8 °F -27.2 °F -25.6 °F 58% 30.29 in 10.0 mi ENE 4.6 mph - N/A   Overcast
11:16 AM -14.8 °F -27.2 °F -22.0 °F 70% 30.29 in 10.0 mi ENE 4.6 mph - N/A   Overcast
11:36 AM -14.8 °F -29.1 °F -23.8 °F 64% 30.29 in 10.0 mi ENE 5.8 mph - N/A   Overcast
11:56 AM -14.8 °F -24.8 °F -23.8 °F 64% 30.30 in 10.0 mi NE 3.5 mph - N/A   Overcast
12:16 PM -14.8 °F -27.2 °F -25.6 °F 58% 30.30 in 10.0 mi ENE 4.6 mph - N/A   Overcast
12:36 PM -14.8 °F -24.8 °F -23.8 °F 64% 30.30 in 10.0 mi ENE 3.5 mph - N/A   Overcast
12:56 PM -16.6 °F - -25.6 °F 64% 30.31 in 10.0 mi Calm Calm - N/A   Overcast
1:16 PM -14.8 °F - -20.2 °F 77% 30.30 in 10.0 mi Calm Calm - N/A   Overcast
1:36 PM -14.8 °F -24.8 °F -23.8 °F 64% 30.31 in 10.0 mi East 3.5 mph - N/A   Overcast
1:56 PM -14.8 °F -24.8 °F -20.2 °F 77% 30.31 in 7.0 mi East 3.5 mph - N/A   Overcast
2:16 PM -13.0 °F - -20.2 °F 70% 30.32 in 10.0 mi Calm Calm - N/A   Overcast
2:36 PM -13.0 °F - -23.8 °F 59% 30.32 in 10.0 mi Calm Calm - N/A   Overcast
2:56 PM -13.0 °F - - N/A% 30.32 in 10.0 mi Calm Calm - N/A   Overcast
3:16 PM -14.8 °F - - N/A% 30.32 in 10.0 mi Calm Calm - N/A   Overcast
3:36 PM -14.8 °F -27.2 °F - N/A% 30.33 in 10.0 mi NE 4.6 mph - N/A   Mostly Cloudy
3:56 PM -14.8 °F -24.8 °F - N/A% 30.33 in 10.0 mi NE 3.5 mph - N/A   Overcast
4:16 PM -14.8 °F -27.2 °F - N/A% 30.33 in 10.0 mi NE 4.6 mph - N/A   Overcast
4:36 PM -14.8 °F -27.2 °F - N/A% 30.33 in 10.0 mi NE 4.6 mph - N/A   Scattered Clouds
4:56 PM -14.8 °F -27.2 °F - N/A% 30.33 in 10.0 mi ENE 4.6 mph - N/A   Clear
5:16 PM -14.8 °F -27.2 °F - N/A% 30.34 in 10.0 mi East 4.6 mph - N/A   Partly Cloudy
5:36 PM -14.8 °F -24.8 °F - N/A% 30.35 in 10.0 mi ENE 3.5 mph - N/A   Scattered Clouds
5:56 PM -14.8 °F -24.8 °F -29.2 °F 48% 30.35 in 10.0 mi East 3.5 mph - N/A   Scattered Clouds
6:16 PM -14.8 °F -24.8 °F -27.4 °F 53% 30.36 in 10.0 mi East 3.5 mph - N/A   Partly Cloudy
6:36 PM -14.8 °F -27.2 °F -27.4 °F 53% 30.36 in 10.0 mi East 4.6 mph - N/A   Scattered Clouds
6:56 PM -14.8 °F -24.8 °F -25.6 °F 58% 30.37 in 10.0 mi ENE 3.5 mph - N/A   Overcast
7:16 PM -14.8 °F -24.8 °F -25.6 °F 58% 30.37 in 10.0 mi East 3.5 mph - N/A   Overcast
7:36 PM -14.8 °F -24.8 °F -23.8 °F 64% 30.38 in 10.0 mi East 3.5 mph - N/A   Mostly Cloudy
7:56 PM -14.8 °F -24.8 °F -25.6 °F 58% 30.38 in 10.0 mi East 3.5 mph - N/A   Clear
8:16 PM -14.8 °F - -23.8 °F 64% 30.38 in 10.0 mi Calm Calm - N/A   Scattered Clouds
8:36 PM -16.6 °F - -25.6 °F 64% 30.39 in 10.0 mi Calm Calm - N/A   Mostly Cloudy
8:56 PM -14.8 °F -24.8 °F -23.8 °F 64% 30.37 in 10.0 mi NE 3.5 mph - N/A   Scattered Clouds
9:16 PM -14.8 °F - -25.6 °F 58% 30.38 in 10.0 mi Calm Calm - N/A   Clear
9:36 PM -14.8 °F -27.2 °F -23.8 °F 64% 30.39 in 10.0 mi East 4.6 mph - N/A   Clear
9:56 PM -14.8 °F -27.2 °F -22.0 °F 70% 30.39 in 10.0 mi ENE 4.6 mph - N/A   Clear
10:16 PM -14.8 °F -29.1 °F -25.6 °F 58% 30.39 in 10.0 mi East 5.8 mph - N/A   Clear
10:36 PM -16.6 °F - -23.8 °F 70% 30.39 in 10.0 mi Calm Calm - N/A   Clear
10:56 PM -16.6 °F - -25.6 °F 64% 30.39 in 10.0 mi Calm Calm - N/A   Clear
11:16 PM -16.6 °F - -23.8 °F 70% 30.40 in 10.0 mi Calm Calm - N/A   Clear
11:36 PM -16.6 °F -26.8 °F -25.6 °F 64% 30.40 in 10.0 mi NE 3.5 mph - N/A   Clear
11:56 PM -14.8 °F -24.8 °F -20.2 °F 77% 30.39 in 10.0 mi ENE 3.5 mph - N/A   Clear